Location: Sortland
(68.7020°N, 15.4240°E)
Time: 08:43:16
(UTC+01:00)

Envisat - Pass Details

Date: 23 October 2019
Orbit: 764 x 766 km, 98.1° (Epoch: 17 November)

Event Time Altitude Azimuth Distance (km) Brightness Sun altitude
Rises 19:23:55 0° 187° (S) 3,233 6.3 -14.4°
Reaches altitude 10° 19:26:21 10° 195° (SSW) 2,309 5.6 -14.6°
Maximum altitude 19:31:08 39° 265° (W) 1,145 4.5 -15.1°
Drops below altitude 10° 19:35:55 10° 334° (NNW) 2,320 6.0 -15.5°
Sets 19:38:23 0° 342° (NNW) 3,250 6.6 -15.7°
